This is the latest recevied weather packets stored in our database for station/object KC9Q. If no packets are shown the sender has not sent any weather packets the latest 10 day(s).
| Time | Temp. | Humidity | Pressure | Rain* | Wind** | Luminosity | Snow |
|---|---|---|---|---|---|---|---|
| 1777594787 | 16.67° C | 46% | 1014.4 hPa | 0 mm | - | 16 W/m² | - |
| 1777594484 | 16.67° C | 43% | 1014.6 hPa | 0 mm | - | 20 W/m² | - |
| 1777594179 | 16.67° C | 46% | 1014.4 hPa | 0 mm | - | 22 W/m² | - |
| 1777593876 | 16.67° C | 43% | 1014.5 hPa | 0 mm | - | 29 W/m² | - |
| 1777593572 | 17.22° C | 43% | 1014.5 hPa | 0 mm | - | 34 W/m² | - |
| 1777593272 | 17.22° C | 44% | 1014.4 hPa | 0 mm | - | 38 W/m² | - |
| 1777592967 | 17.22° C | 44% | 1014.5 hPa | 0 mm | - | 41 W/m² | - |
| 1777592662 | 17.22° C | 43% | 1014.5 hPa | 0 mm | - | 48 W/m² | - |
| 1777592358 | 17.22° C | 42% | 1014.5 hPa | 0 mm | - | 56 W/m² | - |
| 1777592053 | 17.22° C | 43% | 1014.6 hPa | 0 mm | - | 58 W/m² | - |
| 1777591751 | 17.22° C | 39% | 1014.5 hPa | 0 mm | - | 64 W/m² | - |
| 1777591446 | 17.78° C | 42% | 1014.3 hPa | 0 mm | - | 63 W/m² | - |
| 1777591143 | 17.78° C | 41% | 1014.4 hPa | 0 mm | - | 66 W/m² | - |
| 1777590837 | 17.78° C | 40% | 1014.5 hPa | 0 mm | - | 55 W/m² | - |
| 1777590534 | 18.33° C | 38% | 1014.7 hPa | 0 mm | - | 50 W/m² | - |
| 1777590230 | 18.33° C | 40% | 1014.7 hPa | 0 mm | - | 54 W/m² | - |
| 1777589928 | 18.33° C | 39% | 1014.7 hPa | 0 mm | - | 58 W/m² | - |
| 1777589624 | 18.33° C | 40% | 1014.7 hPa | 0 mm | - | 65 W/m² | - |
| 1777589321 | 18.33° C | 39% | 1014.8 hPa | 0 mm | - | 83 W/m² | - |
| 1777589018 | 17.78° C | 38% | 1014.5 hPa | 0 mm | - | 83 W/m² | - |
| 1777588714 | 17.78° C | 40% | 1014.7 hPa | 0 mm | - | 86 W/m² | - |
| 1777588410 | 17.78° C | 36% | 1014.5 hPa | 0 mm | - | 95 W/m² | - |
| 1777588106 | 17.78° C | 37% | 1014.8 hPa | 0 mm | - | 133 W/m² | - |
| 1777587802 | 18.33° C | 40% | 1014.8 hPa | 0 mm | - | 140 W/m² | - |
| 1777587501 | 18.33° C | 37% | 1014.6 hPa | 0 mm | - | 138 W/m² | - |
* Rain latest hour (hover to see other rain measurements)
** Current wind speed in m/s (hover to see current wind gust speed)